Temperature
16 16 16 16 16 16 16 16 16 16 16 16 16 16 16 16 15 15 15 15 15 15 15 15 15 15 15 15 15 15 15 15 15 15 15 15 14 14 14 14 14 14 14
16 16 16 16 16 16 16 16 15 15 15 15 15 15 15 15 15 15 15 15 15 15 15 15 15 15 15 15 15 15 15 15 14 14 14 14 14 14 14 14 14 14 14
16 16 16 15 15 15 16 15 15 15 15 15 15 15 15 15 15 15 15 15 15 15 15 15 14 14 14 14 14 14 14 14 14 14 14 14 14 14 14 14 14 14 14
15 15 15 15 15 15 15 15 15 15 15 15 15 15 15 15 15 15 14 14 14 14 14 14 14 14 14 14 14 14 14 14 14 14 14 14 14 14 14 14 14 14 14
15 15 15 15 15 15 15 15 15 15 15 15 15 15 14 14 14 14 14 14 14 14 14 14 14 14 14 14 14 14 14 14 14 14 14 14 14 14 14 14 14 14 14
15 15 15 15 15 15 15 15 15 15 15 15 14 14 14 14 14 14 14 14 14 14 14 14 14 14 14 14 13 13 13 13 13 13 13 13 14 14 14 13 13 13 13
15 15 15 14 14 14 14 14 14 14 14 14 14 14 14 14 14 14 14 14 14 14 14 14 14 14 14 13 13 13 13 13 13 13 13 13 13 13 13 13 13 13 13
14 14 14 14 14 14 14 14 14 14 14 14 14 14 13 13 13 13 13 13 13 13 13 13 13 13 13 13 13 13 13 13 13 13 13 13 13 13 13 13 13 13 13
14 14 14 14 14 14 14 14 14 14 14 14 14 14 13 13 13 13 13 13 13 13 13 13 13 13 13 13 13 13 13 13 12 13 12 12 12 12 12 12 12 12 12
14 14 14 14 14 14 13 13 13 13 13 13 13 13 13 13 13 12 12 13 13 13 13 13 13 12 12 13 12 12 12 12 12 12 12 12 12 12 12 12 12 12 12
13 13 13 13 13 13 13 13 13 13 13 13 13 13 13 13 13 13 12 12 12 12 12 12 12 12 12 12 12 12 12 12 12 12 12 12 12 12 12 11 12 12 12
13 13 13 13 13 13 13 13 13 13 13 13 13 13 13 12 12 12 12 12 12 12 12 12 12 12 12 12 12 12 12 12 12 12 12 11 11 11 11 11 11 11 11
13 13 13 13 13 13 12 12 12 12 12 12 12 12 12 12 12 12 12 12 11 11 11 11 11 11 11 11 11 11 11 11 11 11 11 11 11 11 11 11 11 11 11
12 12 12 12 12 12 12 12 12 12 12 12 12 12 12 12 12 12 12 12 11 11 11 11 11 11 11 11 11 11 11 11 11 11 11 11 11 11 11 11 11 11 11
12 12 12 12 12 12 12 12 11 11 11 11 11 11 11 11 11 11 11 11 11 11 10 10 10 11 11 11 10 10 11 11 11 11 11 11 11 11 11 11 11 11 11
12 12 11 11 11 11 11 11 11 11 11 11 11 11 11 11 11 11 11 11 11 11 10 10 10 10 10 10 10 10 10 10 10 10 10 10 10 10 10 10 10 10 10
11 11 11 11 11 11 11 11 11 11 10 10 10 10 10 10 10 10 10 10 10 10 10 10 10 10 10 10 10 10 10 10 10 10 10 10 10 10 10 10 10 10 10
11 11 11 11 11 10 10 10 10 10 10 10 10 10 10 10 10 10 10 10 10 10 10 10 10 10 10 10 10 10 10 10 10 9 9 10 10 10 10 10 10 10 10
10 10 10 10 10 10 10 10 10 10 10 9 9 9 9 9 9 9 9 9 9 9 9 9 9 9 9 9 9 9 9 9 9 9 9 9 9 10 10 10 10 10 10
10 10 10 10 10 10 10 10 9 9 9 9 9 9 9 9 9 9 9 9 9 9 9 9 9 9 9 9 9 9 9 9 9 9 9 9 9 9 9 9 9 9 9
9 9 9 9 9 9 9 9 9 9 9 9 8 8 8 8 8 8 8 8 8 8 8 8 8 8 8 8 8 8 9 9 9 8 9 9 9 9 9 9 9 9 9
9 9 9 9 9 9 9 9 9 8 8 8 8 8 8 8 8 8 7 7 8 8 8 8 8 8 8 8 8 8 8 8 8 8 8 8 8 8 9 9 8 9 9
8 8 9 9 9 8 8 8 8 8 8 8 7 7 7 7 7 7 7 7 7 7 7 7 8 8 8 8 8 7 8 8 8 8 8 8 8 8 8 8 8 8 8
8 8 8 8 8 8 8 8 8 7 7 7 7 7 7 7 7 7 7 7 7 7 7 7 7 7 7 7 7 7 7 7 7 7 7 7 8 8 8 8 8 7 8
7 7 7 7 7 7 7 7 7 7 7 7 6 6 6 6 6 6 6 6 6 6 6 7 7 7 7 7 7 7 7 7 7 7 7 7 7 7 7 7 7 7 7
7 7 7 7 7 6 6 6 6 6 6 6 6 6 6 6 6 6 6 6 6 6 6 6 6 7 6 6 6 6 6 6 6 6 6 6 6 6 6 7 7 7 7
Wind_Speed
2 3 2 3 3 4 3 2 3 4 5 5 6 7 5 6 6 6 6 8 9 9 9 10 10 10 10 10 9 9 9 8 8 8 8 8 8 7 7 7 6 6 5
3 3 3 3 3 4 3 3 4 4 3 4 5 5 5 5 6 6 5 6 7 7 7 8 8 8 8 8 8 8 8 8 8 8 7 7 7 7 7 6 6 6 5
4 3 3 3 3 5 6 6 6 5 4 4 4 4 5 5 5 5 5 5 5 6 6 6 6 7 7 7 7 8 8 8 7 7 6 6 6 6 6 6 6 5 5
5 4 3 3 4 5 5 4 4 4 4 3 3 2 3 3 4 4 5 5 5 5 6 6 6 6 6 7 7 7 7 7 7 7 6 6 6 6 5 6 6 5 5
6 5 3 3 4 4 3 3 3 3 3 3 2 3 2 2 2 4 4 4 5 5 5 5 6 5 5 5 6 6 6 6 6 6 5 5 5 5 5 5 5 5 5
6 6 4 4 4 4 3 3 4 3 2 2 3 4 2 2 2 3 3 3 4 4 4 4 4 3 4 4 4 4 5 6 5 5 5 5 5 5 6 5 5 5 5
6 5 4 4 3 3 3 3 3 4 3 3 3 3 4 3 3 2 2 3 3 3 4 4 3 3 3 3 3 3 4 5 5 5 6 6 6 5 5 5 5 4 4
6 5 4 3 3 3 3 3 3 2 2 2 2 2 2 3 3 3 2 2 2 2 2 3 3 3 3 3 2 3 3 4 4 5 5 5 5 5 5 4 4 4 4
5 5 5 3 3 3 2 2 3 3 1 1 1 2 2 1 1 2 2 1 1 1 1 2 3 3 3 3 2 2 3 3 4 4 4 4 4 4 4 4 4 4 4
4 4 4 4 3 2 2 2 2 2 2 1 1 1 1 2 2 1 2 2 1 1 1 1 2 2 3 3 3 3 3 3 4 4 4 4 4 4 4 4 4 4 4
3 4 4 4 2 2 2 2 3 2 2 1 0 0 1 2 2 2 1 2 2 2 1 1 1 1 2 3 3 4 4 3 3 3 3 3 3 4 4 4 4 4 4
1 3 3 3 2 2 2 1 2 2 2 2 2 1 1 1 1 1 1 1 1 2 2 1 2 1 2 2 3 3 4 3 3 3 3 3 3 3 3 3 3 3 3
1 1 1 1 1 1 2 2 2 2 2 2 2 1 1 1 1 2 2 1 1 1 1 1 2 2 2 2 2 3 3 3 4 3 3 3 3 3 3 3 3 3 3
1 1 1 1 1 2 2 2 2 1 2 2 2 2 1 1 1 1 2 2 0 1 1 2 1 2 2 2 2 3 3 3 3 3 3 3 3 3 3 3 4 4 4
1 0 1 1 1 1 2 2 1 1 1 1 1 1 1 1 1 1 1 1 2 1 2 2 1 1 1 2 2 3 3 3 3 3 3 3 4 3 3 3 4 4 4
1 1 1 1 1 1 1 2 1 1 2 1 1 2 1 1 1 1 1 0 1 2 2 2 2 1 0 1 2 2 2 2 2 2 2 2 2 3 3 3 4 4 4
1 2 2 1 2 1 1 1 1 1 1 1 1 2 1 1 1 1 1 1 1 1 1 1 1 1 0 1 1 1 1 1 1 1 1 1 2 2 3 3 4 4 4
2 2 2 1 2 2 2 2 1 1 2 1 1 1 1 1 1 1 1 1 0 0 2 1 1 1 0 1 0 0 1 0 1 1 1 0 1 2 3 3 4 4 4
2 2 2 2 3 3 2 2 2 2 2 2 2 2 1 1 1 1 1 0 0 0 0 2 1 1 1 0 0 0 1 1 1 1 2 2 2 3 3 4 4 3 4
2 2 2 2 2 2 2 2 2 2 2 2 2 2 1 2 1 1 0 0 0 1 1 1 1 0 0 1 1 0 0 1 1 1 2 2 3 4 4 4 4 4 4
2 2 2 1 1 2 2 3 2 3 2 1 1 1 2 1 1 1 1 1 1 1 1 0 1 1 0 0 1 1 1 1 1 1 1 2 2 2 4 5 4 4 5
1 1 2 2 1 1 2 3 2 3 2 2 1 1 1 1 1 0 0 1 1 1 1 1 2 2 3 2 2 1 1 0 2 2 0 2 1 2 4 4 5 5 5
1 0 1 1 1 1 2 3 3 3 2 2 2 1 0 1 1 0 1 2 1 1 1 2 3 4 4 4 3 2 2 3 3 2 1 2 1 2 4 5 5 5 5
0 1 0 1 1 1 0 2 3 2 2 1 1 2 1 1 1 1 1 1 2 2 2 1 3 5 5 5 5 5 4 2 1 1 1 1 2 2 3 5 5 4 4
0 0 1 0 1 1 1 1 3 2 1 1 1 1 2 2 1 1 1 0 2 3 3 3 3 3 3 3 4 3 2 1 1 2 1 1 1 2 2 2 4 4 4
1 0 1 0 1 1 1 1 3 2 2 1 0 0 0 0 1 1 2 2 1 3 3 3 3 3 2 1 3 4 4 3 1 1 2 1 1 0 2 2 3 4 4
Wind_Direction
68 60 47 46 41 43 48 39 50 60 66 74 88 93 91 88 85 83 84 85 90 95 96 96 96 92 91 88 87 87 89 90 95 95 93 90 89 90 88 88 92 91 91
76 69 48 44 46 53 65 77 71 76 70 75 75 87 95 97 91 86 83 84 87 93 98 99 97 94 93 91 91 91 90 90 94 97 93 91 89 89 85 82 88 87 87
78 76 62 47 45 61 69 74 67 71 71 68 62 70 87 90 97 89 84 82 83 85 89 96 98 95 94 93 92 93 92 91 93 93 93 92 86 83 82 82 84 86 87
77 80 71 49 51 72 73 70 66 67 65 67 63 55 69 84 98 99 91 86 84 82 78 82 89 89 86 92 92 94 93 92 94 91 90 87 84 80 79 80 79 82 83
67 75 67 51 65 71 61 74 61 75 76 70 77 65 58 63 77 91 94 95 94 90 82 76 79 82 84 92 93 94 96 97 97 94 89 83 82 79 78 78 77 73 77
61 67 62 55 70 71 53 57 66 55 68 69 76 59 38 34 53 70 91 99 98 99 94 86 84 81 77 85 98 98 101 102 98 95 89 86 82 83 82 81 77 72 71
55 64 60 57 64 78 75 69 71 61 50 49 70 41 11 21 41 46 64 78 79 93 98 98 97 96 81 75 91 104 111 113 108 99 92 88 85 85 81 81 78 69 73
51 63 68 65 67 70 62 63 68 72 51 52 97 89 24 1 3 15 27 63 61 73 88 95 103 102 91 89 92 108 122 123 115 108 99 91 84 85 81 75 72 64 61
53 59 66 72 69 73 79 70 72 85 79 7 59 117 130 211 308 345 356 18 32 53 57 88 105 115 108 97 93 92 120 132 124 113 103 96 87 80 74 69 65 59 49
51 60 68 70 79 70 72 71 67 67 104 61 360 27 133 150 146 320 337 347 4 42 45 72 93 119 121 116 106 83 93 128 131 125 113 100 90 80 76 69 61 52 44
40 56 73 74 80 67 62 64 63 58 78 94 93 50 59 46 79 143 263 324 345 341 357 43 67 107 129 118 119 99 89 105 122 125 110 96 85 75 66 58 50 42 35
21 44 64 73 77 76 69 75 81 74 60 68 66 83 107 115 141 131 176 250 284 313 338 27 49 61 104 111 116 99 91 97 98 90 84 72 66 59 48 41 33 28 25
354 351 62 85 83 77 86 84 76 72 69 71 64 58 87 118 137 144 144 191 242 300 348 11 14 50 84 83 80 95 88 81 82 80 74 63 57 47 30 21 14 6 3
244 240 144 119 85 82 81 86 71 65 74 77 63 59 56 38 80 136 152 150 91 345 357 321 336 24 70 89 84 99 92 83 75 72 71 66 60 47 27 9 360 354 355
266 248 149 147 116 105 107 100 73 62 70 82 81 75 66 25 14 41 117 153 164 200 255 271 306 319 33 103 106 119 115 101 83 78 72 58 50 40 24 10 360 355 352
271 170 177 170 155 127 124 106 76 58 77 60 79 80 59 37 21 31 63 55 149 190 220 233 236 284 17 108 114 119 137 118 105 91 78 60 48 36 17 8 1 355 350
237 230 205 191 186 181 156 124 124 113 101 75 64 88 56 49 42 20 37 45 35 138 191 273 279 306 154 123 53 89 113 124 143 124 94 62 46 32 14 4 356 352 349
241 238 207 185 196 195 183 169 179 150 154 147 138 108 78 69 44 25 52 39 1 265 166 203 262 281 272 204 157 127 99 174 194 193 207 356 21 13 351 342 345 345 343
244 233 201 199 206 205 194 186 178 175 171 175 171 161 163 108 53 27 54 20 312 19 109 165 223 251 291 209 71 345 10 346 300 240 255 279 314 334 335 334 328 332 342
239 223 213 203 202 195 186 172 165 159 157 160 169 169 173 171 194 196 213 257 246 74 54 126 184 221 255 243 137 122 320 309 283 327 309 294 307 322 327 321 320 329 329
258 226 203 193 179 178 171 154 158 149 144 151 170 190 196 206 219 210 224 200 143 129 103 113 208 192 238 199 209 216 219 271 278 330 319 303 299 308 309 309 307 320 326
278 229 192 182 174 213 179 154 143 144 148 159 180 217 232 223 238 263 276 208 170 174 184 187 214 210 217 221 214 201 189 146 279 284 237 284 298 279 290 291 302 310 314
285 278 202 165 171 227 181 159 138 135 152 177 179 179 250 334 21 105 15 7 338 315 203 194 214 222 209 209 186 197 205 198 228 244 178 256 280 276 287 293 303 307 310
271 215 174 164 176 243 142 134 136 129 143 165 184 181 182 250 265 122 91 1 329 316 295 253 222 230 221 201 188 192 204 213 276 267 139 226 272 273 302 297 301 316 325
20 337 177 166 189 265 306 114 110 132 133 159 210 191 185 209 240 142 133 151 319 312 318 307 268 246 240 204 170 144 133 129 248 265 202 188 256 290 296 294 299 308 317
186 120 63 295 246 246 316 103 107 132 137 141 10 290 253 196 241 153 170 190 249 293 315 335 339 323 304 212 175 174 175 170 172 252 243 186 227 332 308 293 303 301 297
Height
1533 1532 1531 1531 1530 1530 1529 1529 1528 1528 1527 1527 1527 1526 1526 1526 1525 1525 1525 1524 1524 1523 1523 1522 1522 1522 1522 1521 1521 1521 1520 1520 1520 1520 1521 1521 1521 1521 1521 1521 1521 1522 1522
1534 1533 1532 1531 1531 1530 1530 1529 1529 1528 1528 1528 1528 1527 1527 1527 1526 1526 1526 1525 1525 1524 1524 1523 1523 1523 1522 1522 1522 1522 1521 1521 1521 1521 1521 1521 1522 1522 1522 1522 1522 1522 1522
1534 1534 1533 1532 1531 1531 1530 1530 1529 1529 1529 1529 1528 1528 1528 1528 1527 1527 1526 1526 1525 1525 1524 1524 1524 1523 1523 1523 1523 1522 1522 1522 1522 1522 1522 1522 1522 1522 1522 1522 1522 1522 1522
1535 1534 1533 1533 1532 1531 1531 1530 1530 1529 1529 1529 1529 1529 1529 1528 1528 1528 1527 1527 1526 1526 1525 1525 1524 1524 1524 1523 1523 1523 1523 1522 1522 1522 1523 1523 1523 1523 1522 1522 1522 1522 1522
1535 1534 1534 1533 1532 1532 1531 1530 1530 1530 1529 1529 1529 1529 1529 1529 1528 1528 1528 1527 1527 1526 1525 1525 1524 1524 1524 1524 1524 1523 1523 1523 1523 1523 1523 1523 1523 1522 1522 1522 1522 1522 1522
1535 1534 1534 1533 1532 1532 1531 1530 1530 1530 1530 1529 1529 1529 1529 1529 1529 1528 1528 1527 1527 1527 1526 1525 1525 1525 1524 1524 1524 1524 1524 1523 1523 1523 1523 1523 1523 1522 1522 1522 1522 1522 1522
1534 1534 1533 1533 1532 1532 1531 1530 1530 1529 1529 1529 1529 1529 1529 1529 1529 1528 1528 1527 1527 1527 1526 1526 1525 1525 1524 1524 1524 1524 1524 1524 1524 1523 1523 1523 1523 1523 1523 1523 1522 1522 1522
1534 1534 1533 1532 1532 1531 1531 1530 1530 1529 1529 1529 1529 1528 1529 1530 1528 1528 1528 1527 1527 1527 1526 1526 1525 1525 1524 1524 1524 1524 1524 1524 1524 1524 1523 1523 1523 1523 1523 1522 1522 1522 1521
1533 1533 1532 1532 1531 1531 1530 1529 1529 1529 1528 1528 1529 1529 1528 1528 1528 1528 1528 1527 1527 1526 1526 1525 1525 1525 1524 1524 1524 1524 1524 1524 1524 1524 1523 1523 1523 1523 1522 1522 1522 1521 1520
1533 1532 1532 1531 1530 1530 1529 1529 1529 1528 1528 1527 1527 1528 1528 1527 1527 1527 1527 1527 1527 1526 1525 1525 1525 1524 1524 1524 1524 1524 1523 1523 1523 1523 1523 1523 1523 1522 1522 1521 1521 1520 1520
1532 1531 1530 1530 1529 1529 1528 1528 1528 1527 1527 1526 1526 1526 1526 1526 1526 1526 1526 1526 1526 1525 1525 1524 1524 1524 1523 1523 1523 1523 1523 1523 1523 1523 1522 1522 1522 1521 1521 1521 1520 1519 1519
1530 1530 1529 1529 1528 1528 1527 1527 1526 1526 1526 1525 1525 1525 1525 1525 1524 1524 1524 1524 1524 1524 1524 1523 1523 1523 1522 1522 1522 1522 1522 1522 1521 1521 1521 1521 1520 1520 1520 1520 1519 1518 1518
1528 1528 1528 1527 1527 1526 1526 1525 1525 1524 1524 1524 1523 1523 1523 1523 1523 1523 1523 1522 1522 1523 1523 1522 1522 1521 1521 1521 1521 1521 1521 1520 1520 1520 1520 1520 1519 1519 1519 1518 1518 1517 1516
1527 1527 1526 1526 1525 1525 1524 1524 1523 1523 1523 1522 1522 1522 1522 1521 1522 1521 1521 1521 1521 1521 1521 1520 1520 1520 1520 1520 1519 1519 1519 1519 1519 1519 1519 1518 1518 1518 1518 1517 1516 1516 1515
1525 1525 1524 1524 1523 1523 1523 1522 1521 1521 1521 1521 1520 1520 1520 1520 1520 1520 1519 1519 1520 1519 1519 1519 1518 1518 1518 1518 1518 1518 1518 1518 1518 1517 1517 1517 1516 1516 1516 1516 1515 1514 1513
1523 1523 1522 1522 1521 1521 1521 1520 1520 1520 1519 1519 1518 1518 1518 1518 1518 1517 1518 1518 1517 1517 1516 1516 1517 1517 1517 1517 1517 1516 1516 1516 1516 1516 1516 1515 1515 1515 1514 1514 1513 1512 1512
1520 1520 1520 1519 1519 1519 1519 1518 1518 1518 1517 1517 1516 1516 1516 1516 1515 1515 1515 1515 1515 1515 1514 1514 1515 1515 1515 1514 1514 1514 1514 1514 1514 1514 1514 1514 1513 1513 1512 1512 1511 1510 1510
1518 1518 1517 1517 1516 1516 1516 1516 1516 1515 1515 1514 1514 1514 1513 1513 1513 1513 1513 1513 1512 1512 1512 1512 1512 1512 1512 1512 1512 1512 1512 1512 1512 1513 1513 1512 1512 1511 1511 1510 1509 1508 1508
1514 1514 1514 1514 1513 1513 1513 1513 1513 1513 1512 1512 1512 1511 1511 1511 1510 1510 1510 1510 1510 1510 1509 1509 1509 1510 1510 1510 1510 1510 1510 1510 1510 1510 1511 1510 1510 1509 1509 1508 1507 1506 1505
1511 1511 1511 1510 1510 1510 1510 1510 1510 1510 1510 1510 1509 1509 1509 1508 1508 1508 1508 1507 1507 1507 1507 1506 1507 1507 1507 1507 1507 1507 1508 1508 1508 1508 1508 1508 1508 1507 1506 1506 1505 1504 1503
1508 1508 1507 1507 1507 1507 1507 1508 1507 1507 1507 1507 1507 1506 1506 1506 1506 1505 1505 1505 1504 1504 1504 1504 1504 1504 1504 1504 1504 1505 1505 1505 1506 1506 1506 1506 1505 1504 1504 1503 1503 1502 1501
1505 1504 1504 1504 1504 1504 1504 1504 1505 1504 1504 1504 1503 1503 1503 1503 1503 1502 1502 1502 1502 1502 1501 1501 1501 1501 1501 1502 1502 1502 1502 1502 1502 1503 1503 1503 1503 1502 1501 1501 1500 1499 1499
1501 1501 1500 1500 1500 1500 1500 1501 1501 1501 1501 1500 1500 1500 1499 1499 1499 1499 1499 1499 1499 1499 1499 1499 1498 1498 1498 1498 1499 1499 1499 1499 1499 1500 1500 1500 1500 1499 1499 1498 1498 1497 1496
1498 1497 1497 1497 1497 1497 1497 1497 1497 1497 1497 1497 1497 1497 1496 1496 1496 1496 1496 1496 1495 1495 1495 1495 1495 1495 1495 1495 1496 1496 1496 1497 1497 1497 1497 1497 1497 1497 1497 1496 1495 1494 1493
1494 1494 1494 1494 1494 1493 1494 1494 1494 1494 1494 1494 1494 1494 1494 1493 1493 1493 1493 1492 1492 1492 1492 1492 1492 1492 1492 1492 1493 1493 1493 1494 1493 1494 1494 1494 1494 1494 1494 1494 1493 1492 1491
1491 1491 1490 1491 1490 1490 1490 1491 1491 1490 1490 1490 1490 1490 1490 1490 1490 1490 1490 1489 1488 1488 1488 1488 1488 1488 1488 1489 1489 1490 1490 1490 1490 1491 1491 1491 1491 1491 1491 1491 1490 1489 1488